Location: Newark
(42.9858°N, 0.6717°E)
Time: 10:07:30
(UTC+00:00)

S-56A Canister/Altair - Pass Details

Date: 29 November 2019
Orbit: 633 x 2500 km, 38.9° (Epoch: 12 December)

Event Time Altitude Azimuth Distance (km) Brightness Sun altitude
Rises 18:06:03 0° 279° (W) 5,448 13.1 -18.1°
Reaches altitude 10° 18:10:12 10° 275° (W) 4,166 12.4 -18.8°
Maximum altitude 18:20:05 49° 206° (SSW) 1,669 9.4 -20.6°
Enters shadow 18:25:41 15° 137° (SE) 2,503 9.8 -21.6°
Drops below altitude 10° 18:26:40 10° 133° (SE) 2,802 - -21.8°
Sets 18:28:57 0° 127° (SE) 3,561 - -22.2°
